EHI
0 0 0 0 0 0 0 0 0 0 0 0 0 0 0 0 0 0 0 0 0 1 3 9 19 25 26 26 23 17 16 18 17 14 14 14 12 11 13 14 14 13 12 10 11 12 12 14 15
0 0 0 0 0 0 0 0 0 0 0 0 0 0 0 0 0 0 0 0 1 2 3 8 17 21 22 22 20 16 15 16 15 13 12 12 11 12 13 15 15 15 14 13 14 15 15 16 18
0 0 0 0 0 0 0 0 0 0 0 0 0 0 0 0 0 0 0 0 1 2 3 7 14 18 19 19 18 15 13 12 12 11 11 11 11 12 14 15 15 15 15 14 15 17 18 19 20
0 0 0 0 0 0 0 0 0 0 0 0 0 0 0 0 0 0 0 0 1 2 2 6 12 15 18 18 17 14 11 8 9 10 11 11 12 12 14 14 14 12 11 10 12 16 19 19 18
0 0 0 0 0 0 0 0 0 0 0 0 0 0 0 0 0 0 0 0 1 1 1 4 9 12 14 16 15 13 9 6 7 9 10 10 10 10 11 12 12 9 5 4 7 12 17 17 15
0 0 0 0 0 0 0 0 0 0 0 0 0 0 0 0 0 0 0 0 0 0 0 2 6 9 11 13 13 11 8 6 7 9 9 7 7 7 8 9 9 6 3 1 3 9 15 16 13
0 0 0 0 0 0 0 0 0 0 0 0 0 0 0 0 0 0 0 0 0 0 0 1 3 6 7 9 10 9 7 6 6 7 7 5 4 5 7 7 6 5 3 1 1 5 11 14 12
0 0 0 0 0 0 0 0 0 0 0 0 0 0 0 0 0 0 0 0 0 0 0 0 1 3 4 5 5 6 6 5 4 4 3 2 2 4 6 6 5 4 3 1 0 2 6 9 9
0 0 0 0 0 0 0 0 0 0 0 0 0 0 0 0 0 0 0 0 0 0 0 0 1 2 3 3 2 4 5 4 2 1 1 0 0 2 3 3 3 3 2 1 0 1 2 4 3
0 0 0 0 0 0 0 0 0 0 0 0 0 0 0 0 0 0 0 0 0 0 0 1 2 4 4 3 2 3 3 2 1 0 0 0 0 0 1 2 3 2 1 0 0 0 1 1 0
0 0 0 0 0 0 0 0 0 0 0 0 0 0 0 0 0 0 0 0 0 0 0 1 3 4 4 2 1 2 3 1 0 0 0 0 0 0 1 3 3 1 0 0 0 0 0 0 0
0 0 0 0 0 0 0 0 0 0 0 0 0 0 0 0 0 0 0 0 0 0 0 1 2 2 2 1 1 2 2 1 0 0 0 0 1 0 1 4 3 1 0 0 0 0 0 0 0
0 0 0 0 0 0 0 0 0 0 0 0 0 0 0 0 0 0 0 0 0 0 0 0 0 0 0 0 0 1 2 1 0 0 0 0 0 0 1 3 2 1 0 0 0 0 0 0 0
0 0 0 0 0 0 0 0 0 0 0 0 0 0 0 0 0 0 0 0 0 0 0 0 0 0 0 0 0 0 1 1 0 0 0 0 0 0 1 2 1 0 0 0 0 0 0 0 0
0 0 0 0 0 0 0 0 0 0 0 0 0 0 0 0 0 0 0 0 0 0 0 0 0 0 0 0 0 0 0 0 0 0 0 0 0 0 1 1 1 0 0 0 0 0 0 0 0
0 0 0 0 0 0 0 0 0 0 0 0 0 0 0 0 0 0 0 0 0 0 0 0 0 0 0 0 0 0 0 0 0 0 0 0 0 0 0 0 0 0 0 0 0 0 0 0 0
0 0 0 0 0 0 0 0 0 0 0 0 0 0 0 0 0 0 0 0 0 0 0 0 0 0 0 0 0 0 0 0 0 0 0 0 0 0 0 0 0 0 0 0 0 0 0 0 0
0 0 0 0 0 0 0 0 0 0 0 0 0 0 0 0 0 0 0 0 0 0 0 0 0 0 0 0 0 0 0 0 0 0 0 0 0 0 0 0 0 0 0 0 0 0 0 0 0
0 0 0 0 0 0 0 0 0 0 0 0 0 0 0 0 0 0 0 0 0 0 0 0 0 0 0 0 0 0 0 0 0 0 0 0 0 0 0 0 0 0 0 0 0 0 0 0 0
0 0 0 0 0 0 0 0 0 0 0 0 0 0 0 0 0 0 0 0 0 0 0 0 0 0 0 0 0 0 0 0 0 0 0 0 0 0 0 0 0 0 0 0 0 0 0 0 0
0 0 0 0 0 0 0 0 0 0 0 0 0 0 0 0 0 0 0 0 0 0 0 0 0 0 0 0 0 0 0 0 0 0 0 0 0 0 0 0 0 0 0 0 0 0 0 0 0
0 0 0 0 0 0 0 0 0 0 0 0 0 0 0 0 0 0 0 0 0 0 0 0 0 0 0 0 0 0 0 0 0 0 0 0 0 0 0 0 0 0 0 0 0 0 0 0 0
0 0 0 0 0 0 0 0 0 0 0 0 0 0 0 0 0 0 0 0 0 0 0 0 0 0 0 0 0 0 0 0 0 0 0 0 0 0 0 0 0 0 0 0 0 0 0 0 0
0 0 0 0 0 0 0 0 0 0 0 0 0 0 0 0 0 0 0 0 0 0 1 0 0 0 0 0 0 0 0 0 0 0 0 0 0 0 0 0 0 0 0 0 0 0 0 0 0
0 0 0 0 0 0 0 0 0 0 0 0 0 0 0 0 0 0 0 0 0 0 0 0 0 0 0 0 0 0 0 0 0 0 0 0 0 0 0 0 0 0 0 0 0 0 0 0 0
0 0 0 0 0 0 0 0 0 0 0 0 0 0 0 0 0 0 0 0 0 0 0 0 0 0 0 0 0 0 0 0 0 0 0 0 0 0 0 0 0 0 0 0 0 0 0 0 0
0 0 0 0 0 0 0 0 0 0 0 0 0 0 0 0 0 0 0 0 0 0 0 0 0 0 0 0 0 0 0 0 0 0 0 0 0 0 0 0 0 0 0 0 0 0 0 0 0
0 0 0 0 0 0 0 0 0 0 0 0 0 0 0 0 0 0 0 0 0 0 0 0 0 0 0 0 0 0 0 0 0 0 0 0 0 0 0 0 0 0 0 0 0 0 0 0 0
0 0 0 0 0 0 0 0 0 0 0 0 0 0 0 0 0 0 0 0 0 0 0 0 0 0 0 0 0 0 0 0 0 0 0 0 0 0 0 0 0 0 0 0 0 0 0 0 0
0 0 0 0 0 0 0 0 0 0 0 0 0 0 0 0 0 0 0 0 0 0 0 0 0 0 0 0 0 0 0 0 0 0 0 0 0 0 0 0 0 0 0 0 0 0 0 0 0
Wind_Speed
3 2 3 4 5 6 7 4 3 3 2 2 3 3 2 3 3 3 5 7 9 7 5 4 7 6 4 3 4 3 4 6 8 9 9 10 11 11 12 12 12 12 12 12 12 12 12 12 12
2 2 4 4 6 8 5 4 6 2 2 3 1 2 2 0 2 4 5 8 8 6 5 4 7 7 5 4 4 3 4 5 6 8 8 9 10 11 11 12 12 12 12 11 11 12 12 12 12
1 2 4 5 6 6 3 3 1 1 1 2 1 1 2 1 2 3 7 8 7 6 5 5 6 6 5 5 3 3 3 4 5 6 7 8 9 10 11 11 11 11 11 11 11 12 12 12 12
3 4 4 6 8 4 2 2 1 1 1 1 2 1 0 2 3 5 8 7 7 6 5 5 5 5 5 4 4 3 3 3 4 5 6 7 8 8 9 10 10 11 11 11 11 11 12 12 12
3 4 6 7 7 3 2 2 2 3 1 2 3 3 2 1 3 6 7 7 7 6 5 5 6 4 3 4 3 3 2 2 3 4 5 6 6 7 8 8 9 10 11 11 11 12 12 12 13
4 4 7 7 7 4 3 2 4 4 3 3 3 5 3 1 5 7 8 7 7 6 6 4 5 4 3 2 2 2 2 1 3 3 4 5 6 6 7 7 9 9 10 11 11 12 12 13 13
4 4 5 5 5 5 3 2 4 5 5 4 4 5 3 2 7 9 8 7 6 6 5 4 4 3 2 1 1 1 1 1 2 3 3 4 5 7 7 7 8 9 9 10 11 12 12 13 13
2 3 4 5 6 4 2 2 3 5 5 4 4 6 4 7 9 10 8 7 6 5 5 4 4 4 3 2 0 1 1 1 1 3 3 3 5 7 7 8 7 7 8 8 9 11 12 13 13
2 5 5 5 4 2 1 3 3 4 6 5 5 6 7 9 9 9 8 7 6 6 5 5 5 4 4 3 2 1 2 2 2 4 4 4 5 6 6 6 6 7 7 8 9 10 11 12 12
3 5 3 1 2 2 3 5 6 6 8 8 7 6 7 8 8 9 9 9 8 8 7 5 5 4 4 3 2 2 2 2 3 3 4 4 4 4 4 6 7 7 7 7 8 8 10 10 9
2 3 1 2 2 4 6 6 6 8 10 9 8 8 8 9 8 8 8 8 8 7 7 6 5 4 4 3 3 2 1 2 3 3 4 4 3 3 3 3 5 6 6 6 7 8 7 8 7
2 2 3 3 3 5 7 7 8 10 11 8 9 9 9 10 9 9 9 9 8 8 7 7 6 4 4 4 3 3 2 2 2 3 3 3 3 3 3 3 4 4 4 4 5 5 7 7 9
3 2 3 5 7 8 9 11 10 12 11 10 9 9 9 10 10 9 9 9 8 8 7 6 6 5 4 4 4 3 3 3 3 3 3 4 4 4 4 4 4 4 4 5 5 6 7 7 8
1 4 5 6 6 5 9 11 9 9 7 7 8 9 9 9 10 10 9 9 8 8 8 6 7 6 5 4 4 4 4 3 3 4 4 5 4 5 5 4 4 4 5 5 5 6 6 6 6
3 4 4 4 4 3 8 10 9 7 7 9 10 10 9 9 9 9 9 9 8 8 8 7 7 6 6 5 5 4 4 4 4 4 5 5 5 6 5 5 5 5 5 6 5 6 5 5 6
3 4 4 2 3 3 6 9 4 4 8 11 10 9 8 8 8 8 8 8 8 8 8 7 6 7 6 5 5 4 5 5 4 4 5 6 6 6 6 5 5 5 5 5 5 5 6 6 6
2 4 5 4 2 4 6 11 8 7 9 10 9 8 7 7 7 7 8 8 8 8 7 7 7 7 6 6 5 5 5 5 4 4 4 6 6 6 6 5 5 6 5 5 5 6 6 6 6
2 5 6 7 3 7 11 14 13 9 9 9 7 6 6 6 7 7 8 8 8 7 7 7 7 6 6 5 5 4 5 5 4 5 5 7 6 7 6 5 6 6 5 5 6 7 6 6 5
4 6 10 9 6 9 12 15 14 10 8 6 5 5 5 6 7 7 8 8 7 7 7 7 7 5 4 4 4 4 5 4 5 5 7 7 7 7 6 5 6 7 6 7 8 7 8 6 5
5 7 9 8 5 8 12 16 11 6 5 4 4 5 6 7 7 8 9 8 8 8 8 8 8 6 6 5 5 5 5 5 5 5 6 7 7 7 6 7 7 7 6 8 8 8 6 5 6
6 6 8 10 11 6 10 9 6 4 4 4 5 5 6 7 8 9 9 8 9 9 8 7 7 7 7 6 5 5 4 4 5 6 5 7 8 8 8 9 8 8 8 7 8 9 10 7 7
5 3 8 10 9 4 4 6 5 4 5 5 5 5 6 7 9 9 10 9 9 9 9 8 8 7 7 7 6 7 6 7 7 6 6 7 8 9 9 9 9 9 8 9 9 9 8 9 8
4 6 7 7 6 6 4 6 5 3 6 5 4 5 6 7 9 10 9 9 9 9 8 8 8 8 7 7 7 8 8 7 6 6 8 8 7 9 9 9 9 9 8 9 9 9 10 9 9
5 5 3 4 4 5 2 5 6 3 5 4 4 5 7 8 8 9 9 9 9 8 8 8 8 8 7 7 8 8 9 9 8 8 7 7 6 7 10 10 10 10 9 9 9 9 11 10 10
3 4 3 3 3 2 1 5 8 3 3 4 5 6 7 8 9 10 10 9 9 9 9 8 9 9 8 7 8 8 8 9 8 8 7 7 6 6 8 9 10 9 9 9 9 10 10 11 11
1 3 3 5 5 4 2 6 5 3 4 4 6 6 8 9 9 10 10 9 9 9 9 9 9 9 8 8 8 8 8 6 6 7 6 6 6 7 8 9 10 10 10 10 10 9 10 10 11
1 1 2 2 3 6 5 6 7 3 5 6 6 7 8 8 9 10 10 9 9 9 9 9 9 9 8 8 8 7 7 6 6 6 6 6 6 7 8 9 9 10 10 10 11 9 11 10 10
2 2 2 2 4 6 5 6 4 3 4 6 7 8 9 9 10 11 10 10 9 8 8 9 9 9 9 8 6 4 5 6 6 6 6 7 7 7 7 8 9 9 10 10 10 10 10 10 10
4 4 3 2 3 5 6 4 1 4 4 6 8 9 9 10 11 11 10 10 9 8 8 8 7 8 7 6 5 4 4 5 5 5 6 7 7 7 6 7 7 8 8 9 9 10 10 10 10
4 4 5 4 4 5 6 7 1 4 6 8 10 10 11 11 11 11 11 10 10 9 8 8 7 7 6 5 4 4 4 4 4 5 5 6 6 6 5 6 7 7 8 8 9 9 10 10 10
Wind_Direction
314 262 217 209 214 224 228 200 199 164 169 352 319 283 285 298 310 52 41 4 353 351 359 22 19 26 40 63 80 119 144 163 168 170 170 170 170 169 167 167 168 167 166 163 156 150 147 142 139
300 225 205 212 231 223 204 193 197 191 6 333 278 263 257 258 14 26 12 356 349 357 1 21 23 24 32 51 71 92 137 155 168 171 172 173 174 174 173 171 171 169 167 162 154 150 147 144 141
231 237 214 211 227 240 176 151 184 280 326 307 293 312 303 335 24 13 3 344 345 0 1 14 18 24 32 42 59 78 116 142 161 174 176 177 178 180 178 176 174 170 165 161 158 155 152 149 145
211 187 211 231 224 230 231 117 20 284 193 343 298 258 174 30 2 356 350 344 344 353 358 10 6 16 32 39 47 68 97 139 146 162 172 177 180 183 181 178 176 172 167 165 163 161 157 153 150
222 207 208 222 227 210 219 289 287 280 303 350 302 275 246 85 1 348 347 345 343 342 346 355 355 359 19 33 43 55 80 132 152 157 169 172 175 180 182 182 179 176 174 172 169 166 164 160 158
188 215 222 222 210 204 215 262 266 278 279 301 308 280 258 61 354 346 340 336 336 333 333 337 347 344 352 12 24 42 45 126 164 159 173 178 175 175 179 183 183 182 181 178 175 172 169 167 164
215 218 235 233 216 212 208 270 268 280 274 294 305 278 238 348 346 332 327 326 328 330 327 328 329 317 299 325 359 333 348 331 198 182 176 184 178 178 179 177 180 184 187 185 181 177 175 172 168
273 224 216 219 223 213 189 258 288 293 291 312 286 271 278 340 334 324 322 322 321 323 320 318 320 323 297 263 275 306 288 277 240 195 186 185 187 184 178 177 172 179 187 188 187 183 180 175 170
238 229 224 217 227 207 219 268 280 285 272 266 265 283 313 324 322 320 317 318 317 317 316 312 311 320 313 281 262 246 235 232 230 200 181 187 195 188 182 178 170 179 183 188 190 191 183 175 171
218 230 229 229 265 268 279 283 294 271 262 263 263 275 299 309 316 316 315 312 314 316 317 309 308 310 315 292 262 245 236 223 228 220 200 202 207 199 196 167 173 177 180 185 188 189 185 187 179
211 235 192 231 278 293 283 280 274 269 269 275 285 297 307 306 307 308 306 304 304 308 313 307 300 299 299 292 270 255 252 238 237 222 211 212 204 196 192 175 172 177 182 186 180 190 196 199 189
200 217 243 257 286 281 280 282 271 258 268 290 294 297 300 298 301 306 305 304 302 301 304 310 300 289 287 288 272 253 244 237 236 221 213 216 204 200 199 195 192 193 195 194 197 200 197 203 197
220 235 260 270 272 272 272 266 271 266 272 280 284 286 291 293 296 297 297 295 297 296 298 306 299 290 280 280 272 253 242 237 228 216 211 219 213 203 204 204 200 202 200 200 206 206 199 203 202
262 262 269 271 263 262 278 274 258 261 272 276 280 286 290 290 296 298 296 294 295 295 295 298 294 286 275 266 266 259 244 232 232 220 208 214 219 211 206 207 207 206 203 205 213 213 207 203 202
259 258 248 242 259 266 291 267 236 256 278 279 286 290 291 290 293 294 297 294 294 293 293 289 288 281 273 264 263 257 245 231 227 223 209 208 220 217 211 208 210 210 208 209 214 214 214 208 203
226 236 244 206 253 255 280 274 252 269 286 287 290 291 288 289 290 295 297 295 294 291 289 287 285 279 275 267 265 259 247 231 221 223 217 209 216 220 212 208 212 211 211 210 210 212 212 208 208
210 261 276 278 232 273 262 271 273 282 287 288 288 288 287 291 294 299 299 298 297 293 290 287 283 275 278 277 263 256 250 235 227 221 225 213 212 216 215 212 211 208 211 214 213 217 215 212 211
281 284 282 287 305 287 270 269 280 282 284 286 290 289 293 299 307 310 304 301 298 295 293 286 281 275 278 273 266 259 250 238 229 228 225 217 212 212 215 215 213 209 210 214 215 216 217 216 212
277 276 284 289 302 292 275 278 283 284 274 278 286 294 302 310 317 318 312 307 302 296 298 294 288 281 276 270 265 259 253 239 230 230 227 217 213 211 212 211 211 213 213 215 217 215 213 213 203
259 272 287 290 299 293 288 283 276 264 264 278 285 297 306 313 320 322 318 317 310 308 301 293 284 278 274 271 265 256 257 248 241 238 232 221 215 213 214 211 210 214 217 218 218 214 213 214 205
258 264 291 301 309 268 289 270 223 226 254 266 275 288 300 311 317 319 317 315 311 308 304 297 287 281 276 274 267 262 257 247 239 236 234 226 220 219 218 219 215 215 217 218 217 216 216 212 211
276 269 284 293 299 296 315 289 225 222 250 254 263 279 298 310 314 315 313 312 308 306 304 294 287 282 278 271 262 257 251 251 245 239 237 232 224 222 222 223 221 218 219 219 219 219 222 214 214
283 304 284 277 271 278 247 266 257 203 242 251 274 296 309 315 316 314 312 308 306 308 307 299 296 288 281 269 261 256 250 254 250 244 239 234 228 224 223 224 223 221 221 222 222 222 223 218 219
283 274 242 222 239 259 268 268 276 218 243 262 288 306 314 312 312 314 316 311 312 315 313 310 302 292 285 271 262 257 252 253 249 250 246 236 231 231 227 224 225 222 220 220 222 224 224 223 222
288 295 282 260 246 265 123 264 270 300 263 268 288 305 315 317 320 319 321 317 316 316 314 309 304 297 287 276 268 261 258 252 244 247 246 241 236 234 234 229 224 222 221 220 221 223 224 224 225
293 295 308 300 302 311 250 255 278 324 298 288 296 307 315 321 319 318 318 315 311 309 308 308 304 300 293 280 272 263 260 252 245 244 243 242 240 237 235 235 231 225 223 221 221 223 223 223 225
212 183 348 280 292 277 260 271 287 276 295 308 313 316 319 323 323 319 314 314 313 310 305 302 303 302 297 286 273 260 259 253 247 246 246 245 247 244 235 233 231 227 224 223 223 225 223 222 223
303 154 192 237 285 283 274 267 275 299 308 311 317 320 321 327 325 324 321 318 317 314 308 306 303 298 294 286 282 263 254 251 246 245 251 253 251 248 242 236 234 232 227 225 226 227 224 225 223
175 184 209 228 272 282 288 279 292 282 301 307 315 319 319 322 324 325 326 324 324 320 316 312 307 302 298 291 290 279 265 260 250 245 249 252 251 248 243 241 235 232 232 228 228 227 222 223 221
231 216 200 235 236 247 277 280 328 287 306 309 310 316 319 319 322 323 324 325 325 324 324 321 316 314 313 304 297 291 284 269 256 255 258 256 254 245 241 241 238 236 236 233 230 229 223 222 220